TimeEDT,TemperatureF,Dew PointF,Humidity,Sea Level PressureIn,VisibilityMPH,Wind Direction,Wind SpeedMPH,Gust SpeedMPH,PrecipitationIn,Events,Conditions,WindDirDegrees,DateUTC
12:52 AM,41.0,28.0,60,29.74,10.0,WNW,15.0,23.0,N/A,,Scattered Clouds,290,2013-04-01 04:52:00
1:52 AM,37.9,27.0,65,29.76,10.0,WNW,6.9,-,N/A,,Partly Cloudy,290,2013-04-01 05:52:00
2:52 AM,37.0,26.1,65,29.78,10.0,West,10.4,-,N/A,,Clear,280,2013-04-01 06:52:00
3:52 AM,35.1,26.1,70,29.80,10.0,West,8.1,-,N/A,,Partly Cloudy,270,2013-04-01 07:52:00
4:36 AM,33.8,24.8,70,29.82,8.0,NNW,17.3,27.6,0.00,Snow,Light Snow,330,2013-04-01 08:36:00
4:52 AM,33.1,23.0,66,29.83,10.0,NNW,11.5,19.6,0.00,,Overcast,330,2013-04-01 08:52:00
5:52 AM,30.9,21.0,67,29.88,10.0,WNW,9.2,-,N/A,,Scattered Clouds,300,2013-04-01 09:52:00
6:52 AM,30.0,18.0,61,29.91,10.0,WNW,10.4,-,N/A,,Clear,300,2013-04-01 10:52:00
7:52 AM,30.0,15.1,54,29.96,10.0,NNW,9.2,-,N/A,,Clear,330,2013-04-01 11:52:00
8:52 AM,30.9,15.1,52,29.99,10.0,NW,12.7,-,N/A,,Clear,320,2013-04-01 12:52:00
9:52 AM,32.0,14.0,48,29.99,10.0,WNW,17.3,23.0,N/A,,Mostly Cloudy,300,2013-04-01 13:52:00
10:52 AM,34.0,12.9,42,30.01,10.0,WNW,16.1,24.2,N/A,,Mostly Cloudy,300,2013-04-01 14:52:00
11:52 AM,36.0,12.0,37,30.02,10.0,WNW,17.3,26.5,N/A,,Mostly Cloudy,300,2013-04-01 15:52:00
12:52 PM,37.9,9.0,30,30.03,10.0,WNW,17.3,24.2,N/A,,Mostly Cloudy,300,2013-04-01 16:52:00
1:52 PM,37.9,10.0,32,30.02,10.0,NW,12.7,25.3,N/A,,Mostly Cloudy,310,2013-04-01 17:52:00
2:52 PM,39.9,9.0,28,30.02,10.0,WNW,18.4,28.8,N/A,,Scattered Clouds,290,2013-04-01 18:52:00
3:52 PM,41.0,8.1,26,30.02,10.0,NW,17.3,25.3,N/A,,Mostly Cloudy,310,2013-04-01 19:52:00
4:52 PM,41.0,8.1,26,30.03,10.0,WNW,18.4,28.8,N/A,,Mostly Cloudy,290,2013-04-01 20:52:00
5:52 PM,37.9,9.0,30,30.05,10.0,WNW,18.4,27.6,N/A,,Mostly Cloudy,290,2013-04-01 21:52:00
6:52 PM,36.0,9.0,33,30.07,10.0,WNW,18.4,28.8,N/A,,Mostly Cloudy,300,2013-04-01 22:52:00
7:52 PM,33.1,9.0,37,30.09,10.0,WNW,11.5,21.9,N/A,,Clear,300,2013-04-01 23:52:00
8:52 PM,30.9,10.0,42,30.10,10.0,WNW,10.4,-,N/A,,Clear,300,2013-04-02 00:52:00
9:52 PM,28.9,10.0,45,30.12,10.0,WNW,8.1,-,N/A,,Clear,300,2013-04-02 01:52:00
10:52 PM,28.0,10.0,47,30.14,10.0,WNW,6.9,-,N/A,,Clear,300,2013-04-02 02:52:00
11:52 PM,26.1,10.9,53,30.14,10.0,West,6.9,-,N/A,,Clear,280,2013-04-02 03:52:00